Temp
70 67 67 68 70 70 70 69 70 71 72 74 72 73 74 73 73 72 72 72 72 73 72 72 72 72 72 72 71 72 72 72 70 70 68 68 66 66 67 69 68 69 71 70 71 69 65 59 58 61 64 64 64 65 65 65 64 63 63 64 65 64 65
71 69 69 69 69 70 68 68 69 70 70 70 73 72 72 73 72 72 71 71 72 72 73 74 72 73 71 71 69 69 70 71 71 71 70 69 70 68 67 67 70 70 70 70 70 71 67 63 58 59 59 62 63 63 64 65 66 66 65 63 64 64 64
69 69 69 69 69 70 68 67 68 69 71 70 70 71 71 72 72 72 72 72 71 72 72 73 72 71 70 71 71 70 70 70 71 71 70 71 71 71 71 70 68 68 69 68 68 69 69 68 63 60 62 61 58 58 63 63 65 65 65 65 64 64 64
68 68 68 67 69 69 68 68 69 69 70 70 70 70 70 71 70 72 72 72 71 70 71 72 72 73 71 71 70 70 71 70 70 70 70 70 71 71 71 72 71 70 69 68 68 69 68 64 63 61 63 63 61 59 61 63 64 67 68 67 64 64 65
69 69 69 68 69 69 68 68 69 69 69 69 69 70 69 70 70 70 70 70 70 70 71 71 72 73 72 71 71 70 70 70 70 70 70 69 69 71 71 72 72 72 71 72 71 71 70 68 67 64 61 64 65 64 63 63 67 69 70 71 70 65 66
69 70 69 68 69 69 69 68 68 69 68 68 68 68 68 68 70 69 70 71 70 70 70 71 70 70 70 70 70 69 70 70 71 71 71 70 70 71 71 72 73 73 73 73 73 72 72 71 69 63 65 68 63 62 66 68 67 71 72 70 72 71 69
69 70 70 69 69 70 70 69 70 69 68 68 67 68 68 69 70 70 70 70 70 69 69 68 68 69 69 72 70 70 69 69 70 70 71 70 70 70 72 71 72 73 72 72 72 72 71 69 67 65 64 65 66 67 69 70 70 69 69 71 72 72 70
70 70 70 70 69 69 69 69 70 69 69 68 69 68 67 68 67 68 68 68 68 69 69 68 68 68 68 71 71 68 68 68 69 69 70 69 69 69 69 71 71 72 72 73 73 72 73 71 70 68 66 61 62 65 65 69 70 69 68 70 72 72 71
70 70 70 69 70 70 69 70 69 68 68 67 68 68 67 68 68 68 68 68 69 69 69 69 70 70 69 69 69 69 67 69 68 68 68 68 68 68 69 70 71 72 72 72 73 73 74 72 71 70 70 68 64 61 65 64 67 66 70 69 70 71 71
68 68 68 68 68 68 69 69 69 68 67 68 67 68 67 68 69 69 69 68 68 69 69 69 70 70 69 69 69 68 68 69 69 68 68 68 67 68 69 68 71 71 71 71 73 72 71 71 72 72 74 72 71 66 62 62 63 64 67 71 70 69 72
69 69 69 68 68 67 67 67 68 67 68 67 67 67 68 68 68 68 69 69 68 69 70 70 71 70 70 70 69 69 69 69 68 68 68 68 68 69 68 69 71 71 70 71 71 71 71 71 71 72 73 74 74 70 68 64 63 67 67 68 71 70 71
70 69 69 68 68 67 67 67 68 68 67 67 68 67 68 69 69 68 69 69 69 69 69 69 70 70 71 70 69 69 68 71 71 69 68 68 68 69 69 68 69 70 70 70 70 70 70 71 71 73 72 73 72 72 70 69 63 66 70 67 69 73 71
70 69 68 66 66 67 67 67 68 67 68 69 69 69 70 70 69 69 69 69 68 69 70 69 70 70 70 70 70 71 70 71 72 70 70 69 70 69 69 69 70 70 70 71 71 70 71 71 72 73 72 72 71 71 72 70 68 64 67 69 70 71 72
67 69 68 68 68 68 67 68 69 69 68 68 68 69 70 70 71 70 70 70 71 70 69 69 70 70 70 69 70 70 71 72 72 71 70 69 70 70 71 70 69 68 70 71 71 71 72 72 71 72 72 72 72 71 73 71 68 65 65 67 69 71 71
68 68 68 68 68 68 67 68 68 68 68 68 70 70 71 70 70 71 72 72 71 71 71 70 70 71 71 69 69 69 70 72 71 70 70 70 69 69 69 71 70 69 71 72 71 74 73 72 74 73 72 72 73 72 72 73 70 67 64 66 68 71 70
67 67 67 68 68 68 68 68 69 68 69 69 70 71 70 70 70 71 71 71 71 71 71 70 70 71 70 71 71 70 70 71 71 71 70 71 72 71 70 69 69 69 69 69 69 71 71 72 74 75 73 72 72 72 72 74 71 68 66 66 68 69 69
66 67 67 68 67 68 68 67 69 69 70 69 70 69 70 70 69 70 70 70 71 71 70 70 70 72 72 72 72 71 71 71 71 72 72 72 72 72 71 69 68 69 70 69 70 70 71 71 71 73 72 71 70 70 71 70 73 71 69 66 67 71 70
66 66 67 68 67 66 67 68 68 70 69 70 70 68 67 67 68 70 69 70 71 71 71 72 71 71 70 71 72 71 71 72 71 71 71 71 69 72 72 71 70 70 70 69 68 70 71 69 72 72 72 73 71 70 69 71 73 73 70 68 66 70 70
66 66 67 67 66 66 66 67 68 69 70 70 68 67 67 67 68 71 72 72 72 72 72 72 73 72 72 70 70 70 70 70 71 72 71 71 72 72 72 71 69 70 70 70 69 68 69 69 70 70 71 72 73 70 69 70 71 72 71 71 68 66 67
65 63 62 63 64 64 66 67 69 69 70 69 65 64 64 65 66 70 71 72 71 70 70 71 71 71 71 72 71 70 69 69 69 69 70 71 71 71 71 71 70 70 71 71 69 68 68 67 68 69 69 68 70 69 68 69 71 71 71 70 69 69 68
59 60 60 61 63 63 64 65 67 68 69 69 68 68 67 66 65 66 70 72 71 70 70 70 71 71 72 71 71 70 70 69 69 68 67 68 69 70 70 70 71 71 72 72 71 70 69 69 69 69 68 68 68 67 68 69 69 70 69 69 69 68 69
62 62 61 60 61 62 63 63 64 65 66 66 67 68 67 66 65 64 65 67 68 68 69 69 70 70 70 70 70 70 69 69 69 67 66 66 66 68 69 69 69 71 69 65 60 63 64 64 70 69 68 68 68 68 68 69 69 69 69 69 68 68 67
58 59 61 61 61 61 60 60 61 63 63 64 64 64 64 64 65 66 65 64 65 64 65 66 61 55 60 71 70 70 68 69 69 69 67 66 66 65 66 68 67 61 58 57 54 50 49 52 56 66 71 68 68 68 68 68 69 70 69 68 68 67 66
58 57 58 58 58 58 59 60 61 62 60 61 62 62 62 62 63 64 65 64 62 62 63 64 45 42 44 52 67 69 70 69 69 69 69 69 68 67 67 67 68 62 60 58 57 45 47 47 47 48 54 58 62 70 69 67 68 69 69 69 69 68 68
59 58 58 58 59 59 59 60 60 61 61 60 60 60 61 61 61 62 63 64 63 63 65 51 44 42 43 45 52 68 69 69 68 69 70 70 70 69 67 66 67 67 68 68 68 60 52 44 44 44 45 47 47 45 49 65 69 67 68 68 66 67 68
58 58 60 61 60 60 60 60 60 59 59 58 58 58 59 60 61 62 63 63 62 63 67 45 43 42 42 43 44 54 69 69 69 69 69 69 70 69 68 68 67 66 68 57 62 67 65 58 45 41 41 41 42 42 42 42 49 66 70 68 67 65 67
58 58 58 59 60 60 61 60 58 58 58 58 58 58 59 60 60 61 61 63 62 63 67 46 42 42 42 41 40 48 64 65 66 68 68 68 68 68 67 67 68 67 66 65 66 65 65 63 61 59 60 63 62 53 44 42 43 46 59 69 68 66 64
59 59 59 58 58 60 60 60 60 59 60 60 61 61 62 62 62 62 62 63 65 64 63 41 41 40 40 41 40 47 61 62 64 65 65 66 66 66 67 66 67 68 67 66 65 62 64 64 64 63 62 61 62 61 61 61 62 64 65 66 69 67 63
56 58 57 56 56 57 57 57 58 59 61 62 62 62 62 63 62 62 63 63 64 64 59 39 41 40 40 40 39 56 60 61 62 63 64 64 65 66 67 67 67 67 67 66 55 46 55 65 64 63 61 60 60 59 54 45 41 44 57 64 65 63 63
53 55 56 56 55 56 57 56 56 58 61 60 61 62 62 63 63 63 62 63 63 63 63 46 40 40 40 39 46 60 60 60 60 60 61 63 64 65 65 66 67 67 66 66 50 42 44 52 64 63 62 59 58 58 55 51 43 40 40 40 40 40 40
52 52 53 53 53 54 55 56 56 56 58 57 56 57 60 61 62 62 61 61 60 61 62 47 40 40 40 38 45 57 59 60 60 60 61 62 63 64 64 56 58 65 64 64 43 42 41 53 63 62 60 59 58 57 55 54 53 48 41 40 39 39 40
50 50 50 49 50 52 52 52 54 55 57 58 57 58 56 57 57 56 56 56 52 55 58 49 40 40 39 39 46 55 56 60 59 60 61 62 63 64 65 59 51 55 62 58 39 41 41 52 63 61 61 59 56 56 55 57 56 55 56 55 54 54 52
49 49 49 49 49 49 50 50 50 50 52 56 58 58 58 58 56 54 55 55 54 53 54 55 46 38 40 39 39 50 55 59 61 62 62 63 64 65 63 64 57 44 43 43 40 40 41 44 61 62 61 61 61 58 58 58 59 59 58 57 56 56 55
50 50 50 49 49 48 49 48 48 47 48 50 52 52 53 55 55 54 53 54 55 55 54 56 48 38 39 39 38 40 54 56 61 62 63 62 64 64 65 65 66 49 41 41 40 40 41 41 47 63 62 64 64 59 54 58 53 48 56 54 54 54 55
51 52 53 53 52 51 52 53 52 51 52 51 52 52 52 55 56 55 54 54 54 55 54 48 54 41 37 38 37 37 50 55 51 57 59 62 62 63 63 63 64 49 40 41 39 39 40 41 42 60 63 49 43 44 57 57 56 57 56 56 56 55 56
49 50 51 52 53 52 53 53 53 53 54 54 54 54 54 55 57 57 57 57 56 55 56 55 41 47 39 36 36 37 36 43 38 52 58 59 60 60 61 60 57 41 40 40 39 38 39 39 41 56 41 39 42 43 48 57 57 57 56 57 56 55 56
48 48 49 51 52 52 52 52 52 53 53 53 54 54 55 55 56 56 56 56 56 56 56 56 46 38 41 36 35 36 35 36 37 52 57 60 61 60 60 59 52 38 40 39 39 39 39 39 46 40 37 39 40 45 56 55 56 57 54 55 55 55 55
MSLP
1017.70 1018.14 1018.26 1018.34 1018.34 1018.58 1018.74 1018.94 1018.98 1018.98 1019.06 1019.06 1019.30 1019.42 1019.50 1019.66 1019.82 1019.98 1020.06 1020.18 1020.26 1020.30 1020.38 1020.54 1020.70 1020.82 1020.94 1021.06 1021.18 1021.22 1021.30 1021.46 1021.66 1021.82 1022.14 1022.22 1022.70 1022.82 1022.86 1022.70 1022.70 1022.58 1022.54 1022.66 1022.46 1022.78 1023.42 1024.42 1024.86 1024.62 1024.54 1024.46 1024.46 1024.54 1024.54 1024.62 1024.74 1024.82 1024.82 1024.82 1024.94 1025.06 1025.02
1017.58 1017.94 1018.18 1018.38 1018.50 1018.58 1018.90 1019.06 1019.10 1019.22 1019.30 1019.38 1019.38 1019.50 1019.66 1019.70 1019.90 1020.02 1020.18 1020.26 1020.30 1020.34 1020.38 1020.42 1020.62 1020.78 1021.02 1021.18 1021.34 1021.42 1021.54 1021.54 1021.58 1021.62 1021.90 1022.14 1022.22 1022.50 1022.90 1022.82 1022.66 1022.74 1022.82 1022.74 1022.78 1022.58 1023.10 1023.98 1024.82 1024.86 1024.98 1024.70 1024.78 1024.90 1024.86 1024.78 1024.78 1024.82 1024.98 1025.10 1025.14 1025.22 1025.30
1017.78 1018.06 1018.14 1018.42 1018.58 1018.66 1019.06 1019.22 1019.30 1019.42 1019.46 1019.58 1019.62 1019.66 1019.78 1019.82 1019.98 1020.06 1020.14 1020.22 1020.30 1020.38 1020.42 1020.50 1020.74 1020.94 1021.10 1021.22 1021.26 1021.34 1021.38 1021.58 1021.58 1021.70 1021.82 1021.82 1021.98 1022.10 1022.22 1022.50 1022.78 1022.90 1022.90 1023.02 1023.10 1023.02 1023.02 1023.14 1023.94 1024.58 1024.62 1024.74 1025.26 1025.42 1025.18 1025.14 1025.10 1025.10 1025.10 1025.18 1025.30 1025.42 1025.50
1017.74 1017.98 1018.30 1018.58 1018.70 1018.90 1019.18 1019.38 1019.42 1019.50 1019.54 1019.66 1019.78 1019.94 1019.98 1020.02 1020.10 1020.10 1020.18 1020.26 1020.34 1020.46 1020.54 1020.66 1020.82 1020.90 1021.06 1021.18 1021.34 1021.38 1021.38 1021.50 1021.58 1021.70 1021.86 1021.90 1021.94 1022.10 1022.18 1022.18 1022.34 1022.42 1022.62 1022.86 1022.98 1022.98 1023.10 1023.70 1024.02 1024.42 1024.46 1024.70 1025.14 1025.50 1025.58 1025.38 1025.30 1025.14 1025.02 1025.14 1025.42 1025.58 1025.66
1017.58 1017.82 1018.10 1018.46 1018.66 1018.90 1019.14 1019.38 1019.46 1019.54 1019.70 1019.82 1019.86 1019.98 1020.14 1020.14 1020.18 1020.30 1020.38 1020.42 1020.54 1020.58 1020.70 1020.74 1020.86 1020.90 1021.02 1021.10 1021.26 1021.30 1021.34 1021.42 1021.50 1021.66 1021.74 1021.98 1022.02 1022.02 1022.14 1022.02 1022.06 1022.06 1022.26 1022.34 1022.50 1022.62 1022.90 1023.26 1023.46 1024.18 1024.74 1024.74 1024.82 1025.26 1025.58 1025.54 1025.26 1025.10 1025.14 1025.10 1025.34 1025.74 1025.78
1017.46 1017.66 1017.98 1018.38 1018.58 1018.82 1019.02 1019.30 1019.46 1019.58 1019.78 1019.94 1020.02 1020.06 1020.18 1020.26 1020.22 1020.38 1020.50 1020.54 1020.66 1020.74 1020.82 1020.86 1020.94 1020.98 1021.02 1021.10 1021.26 1021.34 1021.38 1021.46 1021.46 1021.54 1021.62 1021.74 1021.82 1021.90 1021.94 1021.94 1021.94 1022.06 1022.14 1022.10 1022.26 1022.58 1022.66 1022.86 1023.26 1024.26 1024.46 1024.18 1024.86 1025.30 1025.30 1025.06 1025.38 1025.26 1025.18 1025.38 1025.38 1025.46 1025.70
1017.54 1017.74 1017.98 1018.30 1018.58 1018.74 1018.94 1019.22 1019.30 1019.46 1019.70 1019.82 1019.98 1020.02 1020.14 1020.22 1020.26 1020.34 1020.42 1020.58 1020.66 1020.78 1020.90 1020.98 1021.02 1021.02 1021.06 1021.06 1021.26 1021.38 1021.50 1021.54 1021.50 1021.58 1021.50 1021.66 1021.74 1021.78 1021.74 1021.94 1021.98 1021.98 1022.18 1022.22 1022.38 1022.54 1022.78 1023.14 1023.66 1024.02 1024.30 1024.50 1024.62 1024.78 1024.82 1024.82 1025.10 1025.18 1025.54 1025.42 1025.46 1025.58 1025.78
1017.42 1017.70 1017.90 1018.14 1018.46 1018.74 1018.94 1019.14 1019.22 1019.38 1019.58 1019.78 1019.82 1020.02 1020.18 1020.26 1020.42 1020.50 1020.58 1020.70 1020.78 1020.86 1020.94 1021.02 1021.10 1021.14 1021.18 1021.14 1021.22 1021.46 1021.58 1021.58 1021.62 1021.62 1021.66 1021.78 1021.90 1021.98 1021.94 1021.82 1021.98 1022.06 1022.22 1022.30 1022.38 1022.54 1022.58 1022.86 1023.10 1023.54 1023.82 1024.74 1025.14 1024.94 1025.10 1024.90 1025.06 1025.14 1025.62 1025.70 1025.62 1025.74 1025.90
1017.34 1017.62 1017.94 1018.18 1018.38 1018.50 1018.74 1018.94 1019.26 1019.42 1019.54 1019.78 1019.90 1020.06 1020.26 1020.30 1020.46 1020.62 1020.70 1020.78 1020.86 1020.94 1021.02 1021.06 1021.14 1021.18 1021.30 1021.30 1021.34 1021.46 1021.62 1021.62 1021.70 1021.74 1021.82 1021.86 1021.98 1022.02 1021.98 1021.94 1021.94 1022.06 1022.22 1022.34 1022.34 1022.50 1022.58 1022.78 1022.98 1023.34 1023.38 1023.54 1024.26 1025.38 1025.22 1025.38 1025.26 1025.74 1025.50 1025.70 1025.90 1025.94 1026.06
1017.42 1017.70 1017.94 1018.26 1018.46 1018.66 1018.82 1018.98 1019.18 1019.46 1019.62 1019.74 1019.98 1020.10 1020.30 1020.38 1020.46 1020.54 1020.70 1020.90 1020.98 1020.98 1021.06 1021.10 1021.14 1021.22 1021.34 1021.38 1021.42 1021.54 1021.66 1021.70 1021.70 1021.86 1021.94 1021.94 1022.06 1022.06 1022.02 1022.10 1021.98 1022.14 1022.34 1022.42 1022.42 1022.58 1022.78 1022.94 1022.98 1023.14 1022.98 1023.14 1023.38 1024.30 1025.18 1025.50 1025.66 1025.70 1025.78 1025.46 1025.70 1026.18 1026.18
1017.34 1017.58 1017.82 1018.18 1018.46 1018.74 1019.02 1019.18 1019.34 1019.54 1019.66 1019.82 1019.94 1020.14 1020.26 1020.42 1020.58 1020.66 1020.74 1020.90 1021.02 1021.02 1021.06 1021.10 1021.10 1021.26 1021.30 1021.42 1021.58 1021.62 1021.70 1021.74 1021.86 1021.94 1022.02 1022.06 1022.14 1022.06 1022.10 1022.14 1022.10 1022.26 1022.38 1022.46 1022.58 1022.70 1022.86 1022.98 1023.10 1023.18 1023.18 1023.06 1023.10 1023.74 1024.26 1024.94 1025.66 1025.38 1025.62 1025.82 1025.58 1025.98 1026.26
1017.34 1017.54 1017.78 1018.02 1018.30 1018.62 1018.90 1019.10 1019.30 1019.42 1019.66 1019.82 1019.94 1020.14 1020.30 1020.38 1020.58 1020.70 1020.78 1020.94 1021.02 1021.10 1021.10 1021.18 1021.18 1021.26 1021.34 1021.54 1021.66 1021.74 1021.82 1021.70 1021.74 1021.98 1022.06 1022.10 1022.18 1022.10 1022.18 1022.30 1022.26 1022.38 1022.50 1022.58 1022.74 1022.82 1022.94 1023.06 1023.18 1023.22 1023.30 1023.30 1023.54 1023.54 1023.90 1024.34 1025.42 1025.58 1025.30 1025.78 1025.82 1025.70 1026.02
1017.38 1017.62 1017.86 1018.10 1018.30 1018.42 1018.66 1018.94 1019.18 1019.42 1019.58 1019.66 1019.82 1019.98 1020.14 1020.30 1020.46 1020.66 1020.78 1020.90 1021.02 1021.06 1021.14 1021.22 1021.18 1021.30 1021.46 1021.62 1021.66 1021.70 1021.82 1021.70 1021.74 1021.94 1022.06 1022.14 1022.14 1022.18 1022.22 1022.34 1022.38 1022.42 1022.54 1022.58 1022.74 1022.90 1023.06 1023.14 1023.22 1023.30 1023.46 1023.62 1023.78 1023.82 1023.82 1024.14 1024.58 1025.54 1025.58 1025.50 1025.66 1025.90 1026.02
1017.62 1017.74 1017.90 1018.02 1018.14 1018.34 1018.62 1018.82 1019.02 1019.18 1019.50 1019.70 1019.78 1019.98 1020.06 1020.18 1020.34 1020.54 1020.70 1020.82 1020.90 1021.06 1021.14 1021.30 1021.30 1021.38 1021.50 1021.70 1021.74 1021.78 1021.74 1021.74 1021.86 1022.02 1022.06 1022.18 1022.14 1022.14 1022.18 1022.34 1022.54 1022.58 1022.54 1022.58 1022.74 1022.90 1023.02 1023.18 1023.34 1023.42 1023.50 1023.66 1023.86 1023.98 1023.90 1024.14 1024.62 1025.42 1025.82 1025.86 1025.70 1025.78 1026.02
1017.50 1017.66 1017.90 1018.02 1018.18 1018.38 1018.58 1018.78 1018.94 1019.22 1019.46 1019.62 1019.66 1019.78 1019.94 1020.18 1020.34 1020.46 1020.58 1020.74 1020.94 1021.06 1021.14 1021.26 1021.34 1021.34 1021.50 1021.70 1021.86 1021.86 1021.86 1021.86 1021.98 1022.18 1022.14 1022.22 1022.30 1022.34 1022.38 1022.34 1022.50 1022.70 1022.62 1022.62 1022.78 1022.78 1022.94 1023.14 1023.22 1023.38 1023.62 1023.70 1023.78 1024.02 1023.94 1023.94 1024.38 1024.86 1025.62 1025.86 1025.86 1025.82 1026.06
1017.46 1017.70 1017.86 1018.02 1018.22 1018.34 1018.58 1018.78 1018.94 1019.14 1019.34 1019.54 1019.62 1019.66 1019.90 1020.14 1020.34 1020.42 1020.58 1020.82 1021.06 1021.18 1021.18 1021.30 1021.34 1021.38 1021.50 1021.62 1021.78 1021.94 1021.98 1021.98 1022.06 1022.18 1022.26 1022.34 1022.30 1022.34 1022.46 1022.58 1022.70 1022.78 1022.86 1022.94 1023.06 1022.98 1023.10 1023.18 1023.14 1023.22 1023.42 1023.62 1023.78 1023.90 1024.02 1023.94 1024.18 1024.70 1025.14 1025.50 1025.50 1025.74 1025.82
1017.38 1017.58 1017.82 1017.94 1018.18 1018.38 1018.58 1018.82 1018.94 1019.06 1019.22 1019.46 1019.62 1019.78 1019.98 1020.18 1020.38 1020.54 1020.70 1020.94 1021.10 1021.26 1021.30 1021.34 1021.38 1021.38 1021.46 1021.62 1021.78 1021.94 1022.06 1022.14 1022.14 1022.14 1022.18 1022.30 1022.34 1022.38 1022.46 1022.66 1022.86 1022.86 1022.82 1023.02 1023.14 1023.22 1023.26 1023.26 1023.38 1023.30 1023.42 1023.62 1023.86 1024.02 1024.06 1024.14 1023.90 1024.14 1024.62 1025.18 1025.42 1025.14 1025.42
1017.18 1017.42 1017.58 1017.82 1018.22 1018.50 1018.74 1018.86 1019.02 1019.14 1019.34 1019.54 1019.62 1019.90 1020.22 1020.30 1020.50 1020.58 1020.82 1020.94 1021.10 1021.26 1021.30 1021.30 1021.42 1021.54 1021.66 1021.70 1021.82 1021.98 1022.10 1022.18 1022.26 1022.30 1022.30 1022.34 1022.42 1022.38 1022.50 1022.62 1022.78 1022.86 1022.94 1023.06 1023.26 1023.18 1023.18 1023.38 1023.26 1023.30 1023.38 1023.38 1023.62 1023.78 1023.98 1023.98 1023.78 1023.86 1024.30 1024.70 1025.14 1025.14 1025.26
1017.10 1017.34 1017.62 1017.94 1018.30 1018.62 1018.86 1019.02 1019.18 1019.26 1019.34 1019.58 1019.86 1020.06 1020.22 1020.38 1020.42 1020.54 1020.62 1020.74 1020.90 1021.06 1021.18 1021.26 1021.34 1021.46 1021.62 1021.78 1021.94 1022.10 1022.22 1022.30 1022.34 1022.38 1022.50 1022.46 1022.46 1022.46 1022.54 1022.70 1022.86 1022.94 1022.98 1023.10 1023.22 1023.30 1023.30 1023.34 1023.34 1023.38 1023.38 1023.38 1023.34 1023.66 1023.82 1023.90 1023.82 1023.86 1024.06 1024.30 1024.74 1025.42 1025.50
1017.30 1017.82 1018.30 1018.62 1018.74 1018.90 1019.10 1019.22 1019.26 1019.38 1019.46 1019.66 1020.06 1020.30 1020.38 1020.42 1020.42 1020.42 1020.54 1020.66 1020.86 1021.06 1021.18 1021.26 1021.38 1021.54 1021.58 1021.74 1021.90 1022.10 1022.30 1022.38 1022.50 1022.58 1022.62 1022.62 1022.62 1022.62 1022.58 1022.66 1022.78 1022.86 1022.90 1022.94 1023.14 1023.26 1023.30 1023.34 1023.34 1023.30 1023.38 1023.50 1023.50 1023.58 1023.82 1023.82 1023.82 1023.94 1024.06 1024.34 1024.66 1024.86 1025.30
1018.02 1018.10 1018.10 1018.58 1018.94 1019.10 1019.30 1019.42 1019.42 1019.46 1019.50 1019.70 1019.94 1020.14 1020.38 1020.50 1020.58 1020.58 1020.58 1020.62 1020.78 1020.98 1021.14 1021.30 1021.38 1021.50 1021.54 1021.70 1021.90 1022.14 1022.30 1022.46 1022.58 1022.70 1022.82 1022.78 1022.78 1022.74 1022.74 1022.74 1022.74 1022.78 1022.78 1022.86 1022.90 1023.06 1023.10 1023.18 1023.22 1023.26 1023.26 1023.34 1023.38 1023.54 1023.62 1023.70 1023.82 1023.90 1024.06 1024.30 1024.46 1024.78 1024.86
1018.34 1018.38 1018.22 1018.46 1018.70 1019.02 1019.22 1019.46 1019.58 1019.66 1019.70 1019.78 1019.94 1020.10 1020.30 1020.50 1020.66 1020.78 1020.86 1020.82 1020.90 1021.02 1021.14 1021.30 1021.38 1021.50 1021.58 1021.74 1021.82 1022.06 1022.26 1022.42 1022.58 1022.74 1022.90 1022.94 1022.94 1022.86 1022.82 1022.82 1022.82 1022.78 1022.82 1022.90 1022.98 1022.94 1022.90 1022.90 1022.98 1023.14 1023.26 1023.26 1023.34 1023.38 1023.42 1023.46 1023.58 1023.70 1023.78 1024.02 1024.34 1024.46 1024.74
1018.30 1018.58 1018.86 1018.86 1018.86 1018.90 1019.34 1019.58 1019.86 1019.90 1019.90 1019.90 1020.06 1020.26 1020.50 1020.66 1020.78 1020.86 1020.98 1021.10 1021.18 1021.34 1021.46 1021.46 1021.54 1021.58 1021.54 1021.50 1021.74 1021.94 1022.18 1022.34 1022.46 1022.58 1022.74 1022.90 1023.02 1023.02 1022.94 1022.90 1022.94 1023.06 1023.14 1023.14 1023.22 1023.26 1023.26 1023.18 1023.02 1022.82 1022.86 1023.10 1023.18 1023.22 1023.26 1023.34 1023.38 1023.38 1023.50 1023.82 1023.98 1024.26 1024.50
1018.42 1018.62 1018.70 1018.78 1019.22 1019.38 1019.54 1019.66 1020.14 1020.34 1020.22 1020.14 1020.10 1020.30 1020.58 1020.82 1020.98 1021.02 1020.98 1020.98 1021.18 1021.38 1021.50 1021.62 1021.90 1021.82 1021.78 1021.74 1021.70 1021.82 1021.98 1022.18 1022.30 1022.42 1022.50 1022.58 1022.70 1022.82 1022.90 1022.94 1022.90 1023.06 1023.22 1023.34 1023.38 1023.42 1023.42 1023.42 1023.30 1023.22 1023.06 1022.98 1022.86 1022.82 1023.02 1023.26 1023.18 1023.10 1023.22 1023.30 1023.50 1023.74 1023.86
1018.46 1018.78 1018.90 1019.02 1019.14 1019.58 1019.62 1019.70 1020.22 1020.26 1020.26 1020.22 1020.14 1020.38 1020.62 1020.82 1020.94 1020.98 1021.02 1021.02 1021.10 1021.30 1021.38 1021.70 1021.90 1022.10 1022.10 1022.02 1021.98 1021.82 1021.86 1021.98 1022.18 1022.22 1022.26 1022.30 1022.34 1022.54 1022.70 1022.86 1022.82 1022.82 1022.82 1022.82 1022.98 1023.46 1023.74 1023.78 1023.70 1023.62 1023.54 1023.50 1023.46 1023.38 1023.18 1022.86 1022.94 1023.22 1023.18 1023.22 1023.54 1023.46 1023.54
1018.62 1018.78 1018.94 1019.06 1019.46 1019.86 1019.90 1019.94 1020.06 1020.10 1020.14 1020.22 1020.38 1020.58 1020.74 1020.82 1020.78 1020.78 1020.82 1020.94 1021.14 1021.26 1021.22 1021.74 1021.94 1022.22 1022.30 1022.34 1022.34 1022.18 1021.78 1021.86 1021.98 1022.02 1022.10 1022.14 1022.18 1022.30 1022.46 1022.62 1022.70 1022.78 1022.74 1023.14 1023.06 1022.94 1023.18 1023.74 1024.10 1024.10 1024.06 1024.10 1024.10 1023.94 1023.62 1023.42 1023.14 1022.82 1022.78 1022.98 1023.18 1023.50 1023.38
1019.10 1019.38 1019.58 1019.50 1019.58 1019.78 1019.94 1020.06 1020.14 1020.26 1020.46 1020.66 1020.70 1020.86 1020.86 1020.78 1020.78 1020.78 1020.86 1020.90 1021.06 1021.26 1021.18 1021.82 1022.06 1022.30 1022.46 1022.54 1022.62 1022.58 1022.14 1022.10 1022.06 1022.02 1022.06 1022.10 1022.18 1022.26 1022.38 1022.46 1022.46 1022.58 1022.62 1022.82 1022.82 1022.90 1022.98 1023.22 1023.62 1023.82 1023.78 1023.62 1023.78 1024.06 1024.06 1023.90 1023.58 1023.34 1023.02 1022.86 1022.98 1023.26 1023.58
1019.38 1019.62 1019.70 1019.74 1019.82 1019.94 1020.10 1020.30 1020.46 1020.62 1020.58 1020.62 1020.70 1020.74 1020.70 1020.70 1020.78 1020.82 1020.90 1020.94 1021.02 1021.14 1021.34 1022.10 1022.38 1022.58 1022.66 1022.70 1022.74 1022.70 1022.38 1022.30 1022.22 1022.18 1022.14 1022.18 1022.22 1022.22 1022.26 1022.34 1022.34 1022.26 1022.34 1022.50 1022.62 1022.78 1022.86 1022.98 1023.14 1023.30 1023.46 1023.66 1023.74 1023.86 1023.94 1023.94 1023.86 1023.62 1023.42 1023.22 1023.06 1023.26 1023.78
1020.06 1019.98 1020.14 1020.34 1020.34 1020.42 1020.58 1020.66 1020.66 1020.58 1020.46 1020.54 1020.66 1020.62 1020.58 1020.54 1020.66 1020.82 1020.90 1020.94 1020.98 1021.02 1021.54 1022.30 1022.62 1022.78 1022.94 1022.94 1022.94 1022.58 1022.30 1022.30 1022.18 1022.10 1022.06 1022.14 1022.18 1022.10 1022.06 1022.10 1022.10 1022.10 1022.14 1022.22 1022.58 1022.94 1022.86 1022.74 1022.90 1023.06 1023.38 1023.62 1023.86 1024.06 1024.58 1025.22 1025.06 1024.58 1023.90 1023.54 1023.46 1023.66 1023.98
1020.62 1020.50 1020.50 1020.54 1020.66 1020.74 1020.74 1020.90 1021.02 1020.78 1020.46 1020.62 1020.54 1020.50 1020.62 1020.74 1020.78 1020.78 1020.86 1020.86 1020.90 1021.10 1021.26 1022.02 1022.30 1022.54 1022.78 1022.90 1022.70 1022.22 1022.22 1022.18 1022.22 1022.18 1022.06 1021.94 1021.94 1021.90 1021.90 1021.90 1021.86 1021.82 1021.90 1022.02 1022.54 1022.94 1023.06 1022.82 1022.66 1022.86 1023.10 1023.46 1023.74 1023.90 1024.46 1024.98 1025.10 1024.82 1024.58 1024.50 1024.54 1024.70 1024.90
1021.18 1021.22 1021.22 1021.30 1021.34 1021.30 1021.14 1021.18 1021.22 1021.14 1020.82 1020.86 1021.02 1021.14 1020.94 1020.86 1020.94 1021.02 1021.10 1021.22 1021.46 1021.42 1021.50 1022.34 1022.62 1022.70 1022.78 1022.94 1022.82 1022.38 1022.22 1022.10 1022.06 1022.02 1021.86 1021.78 1021.74 1021.74 1021.70 1022.02 1022.06 1021.82 1021.86 1021.94 1022.58 1022.90 1023.02 1022.82 1022.50 1022.66 1022.94 1023.22 1023.50 1023.78 1024.38 1024.66 1024.74 1025.14 1025.14 1025.10 1025.22 1025.38 1025.50
1021.86 1021.82 1021.82 1021.94 1021.86 1021.66 1021.70 1021.90 1021.86 1021.62 1021.30 1021.10 1021.22 1021.26 1021.34 1021.30 1021.54 1021.78 1021.90 1021.94 1022.14 1021.94 1021.90 1022.38 1022.74 1022.86 1023.02 1023.10 1023.10 1022.70 1022.46 1022.06 1021.98 1021.78 1021.66 1021.58 1021.54 1021.50 1021.50 1021.70 1022.14 1022.02 1021.70 1021.82 1022.50 1022.78 1022.90 1022.70 1022.34 1022.54 1022.62 1022.90 1023.18 1023.58 1024.06 1024.14 1024.34 1024.54 1024.74 1024.90 1025.26 1025.46 1025.78
1022.50 1022.46 1022.42 1022.30 1022.34 1022.34 1022.14 1022.02 1022.10 1022.26 1022.26 1021.78 1021.54 1021.50 1021.50 1021.50 1021.74 1022.06 1022.14 1022.02 1022.22 1022.30 1022.06 1022.26 1022.86 1023.14 1023.30 1023.38 1023.38 1023.02 1022.54 1021.98 1021.50 1021.38 1021.34 1021.26 1021.18 1021.14 1021.26 1021.30 1021.58 1022.06 1022.18 1022.22 1022.42 1022.66 1022.74 1022.74 1022.22 1022.34 1022.58 1022.58 1022.66 1023.18 1023.70 1023.90 1023.98 1024.02 1024.38 1024.58 1025.06 1025.38 1025.70
1022.90 1022.86 1022.82 1022.82 1022.74 1022.70 1022.62 1022.62 1022.50 1022.54 1022.74 1022.66 1022.38 1022.58 1022.42 1022.06 1022.06 1022.26 1022.42 1022.54 1022.22 1022.14 1022.34 1022.30 1022.86 1023.34 1023.46 1023.42 1023.42 1023.18 1022.54 1022.18 1021.66 1021.50 1021.30 1021.26 1021.14 1021.06 1020.98 1021.02 1021.10 1021.66 1022.26 1022.46 1022.54 1022.62 1022.74 1022.70 1022.42 1022.14 1022.14 1021.98 1022.02 1022.54 1023.30 1023.66 1024.42 1024.38 1024.46 1024.94 1025.30 1025.54 1025.74
1023.22 1023.06 1022.90 1022.78 1022.70 1022.74 1022.78 1022.66 1022.66 1022.66 1022.66 1022.74 1022.74 1022.86 1022.70 1022.22 1022.14 1022.34 1022.54 1022.58 1022.58 1022.58 1022.66 1022.94 1022.66 1023.02 1023.18 1023.22 1023.34 1023.42 1022.66 1022.26 1022.66 1022.10 1021.66 1021.34 1021.26 1021.14 1021.18 1021.26 1021.38 1022.10 1022.46 1022.74 1023.02 1023.14 1022.98 1022.70 1022.54 1022.18 1021.90 1022.10 1022.46 1022.98 1023.18 1023.50 1023.98 1024.22 1024.50 1024.78 1025.02 1025.34 1025.50
1023.78 1023.62 1023.46 1023.22 1023.02 1023.02 1022.98 1022.94 1022.90 1022.78 1022.70 1022.58 1022.46 1022.42 1022.38 1022.30 1022.10 1022.18 1022.30 1022.42 1022.54 1022.62 1022.58 1022.58 1023.06 1022.94 1023.22 1023.30 1023.38 1023.42 1023.46 1023.22 1023.14 1022.50 1021.82 1021.66 1021.58 1021.54 1021.58 1021.74 1021.90 1022.50 1022.58 1022.74 1022.86 1023.14 1023.42 1023.70 1023.46 1022.54 1022.54 1022.70 1022.90 1023.18 1023.30 1023.46 1023.78 1023.98 1024.26 1024.54 1024.74 1025.02 1025.30
1024.30 1024.14 1023.90 1023.58 1023.42 1023.38 1023.30 1023.22 1023.14 1023.06 1022.98 1022.74 1022.54 1022.42 1022.38 1022.42 1022.30 1022.34 1022.38 1022.50 1022.58 1022.70 1022.74 1022.70 1023.02 1023.26 1023.06 1023.10 1023.18 1023.26 1023.30 1023.30 1023.34 1022.62 1022.14 1021.74 1021.62 1021.70 1021.66 1021.86 1022.30 1022.66 1022.58 1022.62 1022.78 1022.98 1023.22 1023.50 1023.50 1023.38 1023.50 1023.38 1023.34 1023.14 1023.02 1023.34 1023.54 1023.74 1024.14 1024.42 1024.66 1024.98 1025.26
Wind_Speed
9 9 8 8 7 6 7 7 6 5 4 5 5 5 5 5 5 4 4 3 4 4 4 4 4 4 3 3 4 4 4 5 6 5 5 6 7 6 2 1 2 3 5 1 6 4 6 7 6 7 6 6 7 7 7 7 7 6 5 4 5 5 5
7 8 8 7 7 6 7 5 5 5 3 2 3 4 3 4 4 4 4 4 3 3 3 3 2 3 4 4 5 5 5 5 5 4 4 5 6 5 5 3 3 4 3 2 3 3 6 8 7 6 7 8 8 7 6 6 6 5 5 5 5 5 5
8 8 8 8 7 7 7 6 5 4 3 3 2 3 4 4 4 4 4 4 3 2 2 2 2 2 2 3 4 5 5 5 4 4 5 3 4 4 5 5 5 5 4 4 4 4 5 4 6 8 7 7 6 5 6 6 6 5 5 4 5 5 5
11 11 10 8 8 7 8 6 5 4 3 4 3 3 3 3 3 3 4 4 3 3 3 3 3 3 3 3 3 4 5 6 4 4 3 3 4 5 5 5 5 6 5 6 7 7 6 5 8 7 7 7 7 6 5 5 5 5 5 5 5 5 4
11 11 12 11 10 9 8 6 4 4 3 3 3 3 3 3 4 4 4 4 3 3 3 2 2 2 2 2 3 3 3 4 3 4 4 4 6 4 4 3 3 3 2 3 5 6 5 7 7 9 8 7 7 6 5 6 6 6 5 6 6 5 4
8 8 9 9 7 7 7 6 6 5 4 4 3 4 4 4 4 5 4 4 3 2 2 2 2 2 2 2 3 4 4 5 4 5 4 6 7 5 4 4 3 3 2 2 5 5 5 6 8 9 7 6 7 7 6 6 5 5 4 4 4 5 5
7 7 7 8 7 5 5 6 6 5 5 4 4 4 4 4 3 3 4 3 3 4 3 3 2 1 1 2 3 4 4 3 2 4 3 4 4 3 3 4 4 3 2 3 5 6 7 8 8 9 9 7 7 7 6 6 5 5 4 4 3 4 4
7 7 6 7 7 7 5 5 4 4 4 3 4 4 4 4 4 3 4 4 4 4 4 3 2 2 2 2 3 3 3 2 2 2 2 3 3 3 4 4 3 3 2 4 6 6 7 7 9 10 11 11 8 5 5 4 4 5 6 4 3 3 3
6 6 6 5 6 6 7 6 5 3 3 4 3 5 4 4 5 5 4 5 4 4 4 4 4 3 2 3 3 4 4 2 3 4 3 2 2 2 3 3 3 3 3 5 5 5 5 6 7 8 7 10 11 8 5 5 5 5 3 5 5 4 4
8 9 8 8 7 5 4 4 5 4 4 4 5 4 5 4 4 5 6 5 4 4 4 4 4 4 3 3 4 4 5 4 4 4 2 2 2 2 2 3 3 4 3 4 4 5 5 5 6 5 3 4 7 9 8 7 6 6 5 4 4 4 3
8 8 8 8 7 6 5 4 4 5 4 4 5 4 5 6 5 5 5 5 4 4 4 4 4 5 4 4 4 4 4 4 5 4 3 2 2 2 3 3 3 4 4 5 4 5 5 5 5 4 2 3 4 6 6 8 6 4 6 2 2 6 5
7 7 7 8 8 8 8 6 6 5 5 5 6 6 6 6 5 5 5 5 5 5 4 4 4 4 4 4 4 4 3 3 4 4 3 3 2 2 4 5 4 4 4 4 5 5 5 5 5 4 3 2 2 2 6 6 7 4 2 5 3 3 7
7 7 7 8 7 8 8 8 7 7 6 5 6 6 6 6 6 6 5 6 5 5 5 4 5 5 4 4 3 4 3 4 5 4 4 3 2 3 5 5 5 5 4 5 5 5 6 5 4 4 4 3 2 1 4 5 6 7 2 2 5 5 7
7 6 7 8 8 7 7 7 7 6 6 5 6 6 6 6 6 6 6 6 6 6 6 5 4 5 5 4 4 4 4 4 5 4 3 4 3 3 4 6 5 4 4 5 5 5 6 6 5 3 4 3 3 3 3 5 7 8 4 1 3 5 6
7 6 7 7 6 7 7 6 7 7 7 6 6 7 6 5 5 6 5 5 5 5 6 6 5 5 5 5 4 2 3 4 5 4 3 4 4 2 2 4 5 4 4 5 6 7 6 6 7 6 5 4 4 4 1 4 6 8 8 5 4 4 6
7 7 8 6 7 7 6 6 7 8 7 6 5 5 6 6 6 5 5 5 5 5 5 5 4 5 5 5 5 4 3 3 4 5 5 4 4 4 4 4 4 4 3 4 4 3 4 6 6 7 6 4 4 4 3 2 6 7 9 7 6 7 7
9 8 8 6 7 6 6 6 6 7 7 6 6 4 5 6 5 5 5 5 5 5 5 5 5 5 6 5 5 5 3 3 3 3 4 5 4 3 4 4 3 3 4 5 4 4 4 4 5 4 5 4 5 6 4 3 5 6 7 8 7 8 8
10 9 8 7 7 6 6 6 5 6 6 6 5 5 4 4 5 6 5 6 6 6 5 6 5 5 4 4 4 3 3 3 3 2 2 3 3 4 4 4 5 4 4 4 3 4 4 5 5 4 5 4 5 6 5 5 6 6 8 9 8 4 6
9 10 8 6 7 6 6 5 6 5 6 6 4 4 6 5 6 6 6 6 6 6 5 5 5 5 5 4 4 3 2 2 2 2 2 1 2 2 3 4 4 4 4 4 4 2 2 3 3 3 4 4 4 5 6 6 5 6 8 7 8 6 5
6 8 8 5 3 3 4 4 6 6 5 5 5 4 3 3 3 5 6 6 5 5 5 4 4 4 5 4 4 3 3 3 3 2 1 1 1 1 2 3 4 4 4 4 5 4 4 3 2 3 3 3 4 5 6 6 6 6 6 6 6 7 7
10 7 9 6 4 4 4 3 3 3 4 5 5 6 6 5 3 1 4 6 5 5 5 4 4 4 4 4 4 3 3 3 3 3 2 1 1 1 2 2 2 2 2 3 4 4 4 4 3 3 2 3 4 6 7 6 6 6 6 7 8 7 7
7 3 6 7 7 5 5 4 4 3 3 4 3 4 4 4 4 2 1 2 4 4 4 4 3 4 4 4 4 4 4 4 4 4 3 2 2 2 3 3 3 3 3 2 1 3 3 4 5 5 3 4 5 6 6 7 7 7 7 8 7 6 7
7 5 4 5 5 5 3 4 3 2 3 3 4 3 3 1 1 3 3 3 2 2 1 1 3 4 2 3 4 3 4 5 5 5 5 4 3 2 2 2 1 1 2 4 4 4 3 6 6 4 6 6 6 6 7 7 7 7 7 8 8 8 8
6 6 7 7 4 4 2 2 3 2 2 2 4 4 3 3 2 1 2 3 3 3 2 1 4 5 5 3 2 3 4 5 5 5 6 6 5 5 4 3 2 3 3 5 4 5 4 4 5 6 4 6 5 7 8 7 7 7 8 8 7 8 8
7 5 5 4 5 3 2 3 1 2 3 3 3 4 4 3 3 3 2 2 3 2 2 5 5 3 2 3 1 3 4 4 5 5 6 6 5 5 5 4 3 3 4 4 4 5 2 1 1 1 3 2 1 6 6 4 7 6 7 7 7 8 7
6 5 4 6 5 4 2 2 3 3 2 2 4 3 3 3 3 3 3 3 2 2 2 6 7 6 6 4 1 2 3 4 5 5 5 6 5 5 5 4 4 3 3 3 3 4 5 4 4 4 5 6 7 5 3 5 6 3 7 6 7 6 7
7 6 5 5 5 5 3 3 3 3 3 3 2 2 2 2 2 2 2 3 3 2 2 6 8 7 7 6 4 1 2 2 3 3 4 4 4 4 5 5 5 5 5 5 4 4 5 5 6 6 5 4 3 3 3 4 1 3 3 5 6 7 5
9 8 8 8 7 7 6 4 4 3 3 3 3 4 4 3 2 2 2 2 1 1 1 6 5 6 6 6 6 3 3 3 3 2 3 3 4 4 4 5 6 6 5 6 5 6 7 7 6 5 5 4 3 2 3 3 3 1 2 1 3 3 5
8 8 8 7 8 8 7 6 5 4 4 4 3 3 2 2 3 3 3 2 1 0 4 6 6 6 6 5 5 3 3 3 4 4 3 3 3 4 5 5 6 6 6 6 7 9 7 7 7 7 6 5 4 4 5 5 5 6 4 2 4 6 5
9 9 9 9 8 7 7 6 5 3 5 6 6 5 4 3 2 3 3 3 2 2 2 4 5 5 5 6 4 1 2 2 3 4 4 4 4 4 4 6 6 6 5 5 9 11 8 8 8 7 7 6 5 4 4 4 10 12 13 15 15 15 14
10 9 10 10 9 8 7 6 6 4 6 7 7 6 5 5 5 5 6 6 5 4 4 5 4 4 2 1 4 2 2 2 3 4 4 4 4 4 5 4 5 6 5 4 11 11 11 10 8 8 8 7 7 6 5 4 5 7 13 15 15 15 14
9 8 8 8 7 8 8 7 6 6 5 5 5 4 4 6 6 6 6 5 5 4 4 4 3 3 2 2 2 2 2 2 4 4 3 3 4 4 4 5 8 9 9 6 13 12 13 11 7 7 8 7 7 7 6 8 8 9 8 9 8 9 9
8 8 8 7 7 6 4 6 7 7 8 6 5 5 5 6 7 6 5 5 5 5 5 4 4 4 3 3 1 2 2 4 4 4 3 3 4 4 4 4 5 10 9 7 12 13 14 12 9 8 7 8 8 8 8 8 7 8 8 8 7 7 7
8 7 7 6 5 5 6 5 5 7 6 5 6 6 5 5 7 7 7 6 6 7 6 5 5 5 5 4 3 2 1 2 4 5 4 4 4 4 4 3 3 5 7 6 10 13 13 14 10 9 10 10 9 10 11 8 7 6 8 8 8 7 7
7 6 6 6 6 6 6 5 5 4 4 4 4 4 4 4 5 5 5 5 6 6 6 8 5 6 5 5 4 2 1 1 2 3 4 4 4 4 4 4 3 6 3 3 6 9 11 13 13 8 8 6 14 17 11 8 8 8 8 7 7 7 7
7 5 6 6 7 7 6 6 5 5 3 2 3 5 5 4 5 5 5 5 5 6 6 7 10 7 7 5 3 2 3 4 2 3 3 4 4 4 4 4 2 7 2 2 5 6 6 8 6 5 7 13 16 15 11 8 9 8 8 7 8 7 7
6 6 6 6 6 6 6 5 5 5 4 4 5 5 5 5 5 5 5 5 5 6 6 6 7 8 7 7 4 5 3 5 5 4 4 4 3 3 3 3 3 4 3 3 4 5 6 6 3 4 5 9 14 13 9 9 9 8 8 8 7 7 7
Wind_Direction
172 162 162 162 159 156 155 148 146 144 138 150 155 164 166 168 171 169 176 182 185 180 183 184 179 170 175 191 221 220 218 208 207 217 187 178 183 184 199 209 120 116 149 314 160 163 143 136 117 96 96 94 85 68 60 66 68 67 60 47 47 48 54
157 150 150 151 150 148 137 130 132 135 121 113 151 150 154 161 163 168 173 178 185 177 189 177 177 175 189 195 211 215 216 212 216 222 196 193 204 178 181 173 155 142 145 133 145 139 146 139 132 129 114 89 80 72 72 61 58 54 45 42 48 53 57
152 147 148 146 146 148 135 134 130 142 151 153 143 151 159 165 163 161 165 160 153 147 163 147 144 165 184 194 214 228 222 211 202 214 222 215 207 180 193 162 163 151 156 150 165 161 144 151 152 147 139 132 103 55 59 57 50 46 49 51 57 62 69
154 148 147 147 146 146 146 140 148 146 152 148 151 150 147 141 133 138 138 135 130 127 136 146 160 171 171 181 162 200 217 212 193 193 205 220 205 180 189 191 185 182 175 183 173 170 156 144 142 140 129 116 117 97 50 55 57 69 76 74 65 68 77
152 157 159 155 156 151 149 149 142 142 141 135 141 139 130 128 128 126 120 126 128 137 137 129 142 163 161 160 158 174 175 188 184 184 187 184 189 180 193 202 211 204 183 183 165 164 158 145 150 135 125 130 109 93 100 88 88 91 83 83 85 89 93
151 148 147 146 151 152 152 150 155 152 142 144 147 143 131 141 139 136 143 142 135 122 114 129 127 142 150 151 141 151 162 174 179 186 179 178 183 191 191 192 209 193 176 128 149 154 138 143 141 138 137 142 124 121 122 126 110 97 88 93 96 99 106
145 145 145 147 151 149 152 159 163 155 153 149 150 150 141 142 131 124 125 115 111 119 121 109 111 121 138 147 139 144 150 156 165 184 176 162 176 178 179 186 196 182 121 133 145 147 148 152 149 143 134 123 128 126 127 126 128 125 102 89 82 94 98
147 152 150 149 154 155 162 163 160 149 144 144 147 130 136 130 120 120 119 122 125 122 123 120 115 122 128 122 103 102 103 112 130 147 127 149 162 176 191 204 174 177 141 149 156 154 157 159 156 152 143 134 132 130 124 121 124 94 114 96 93 97 85
144 143 143 152 160 163 161 165 154 147 128 128 122 135 138 142 140 133 131 126 129 130 129 131 136 126 112 104 98 91 91 88 104 101 109 128 136 160 180 175 184 166 146 153 164 156 159 157 154 156 158 143 140 136 137 132 130 118 120 124 102 86 108
153 157 159 163 162 153 148 147 137 133 123 128 133 136 140 144 143 141 137 133 132 131 128 123 117 112 109 100 100 98 93 92 87 85 83 98 114 145 146 170 177 150 146 147 157 150 144 153 155 159 159 137 136 135 147 143 141 142 152 151 143 124 118
161 157 152 154 152 147 142 136 129 136 142 134 137 143 146 147 145 149 134 132 133 131 124 116 112 117 114 98 93 88 94 106 102 96 89 99 111 120 128 141 144 147 139 161 153 146 147 148 148 147 129 120 128 143 147 149 141 154 144 149 144 138 150
157 153 150 148 152 154 154 156 153 138 136 142 144 149 155 155 154 146 136 137 137 131 125 116 114 110 108 107 103 103 117 119 103 96 88 95 105 123 126 123 128 127 145 144 140 143 142 146 143 141 118 105 56 113 145 142 144 147 163 156 134 127 143
157 158 153 154 159 156 153 154 148 150 154 153 151 156 160 162 156 147 146 140 135 132 124 114 111 110 103 96 104 104 97 95 92 89 98 102 113 124 127 125 126 132 142 146 143 144 149 148 146 138 133 118 122 119 143 152 146 151 171 118 138 141 145
155 158 159 165 159 152 150 155 156 147 143 154 151 158 165 161 155 151 148 146 139 134 126 119 117 114 109 103 91 92 98 99 101 95 95 95 102 112 110 116 118 119 142 143 142 148 159 160 159 149 151 136 127 160 161 146 139 139 141 101 147 148 142
161 163 162 163 156 153 155 157 144 147 156 154 164 158 162 152 153 152 145 137 129 129 128 125 125 119 113 106 95 81 100 106 102 101 91 87 89 90 98 113 115 122 138 138 149 162 163 174 183 184 176 182 156 163 199 161 146 153 152 159 157 143 157
161 163 162 164 163 159 153 145 153 158 157 157 168 159 151 153 152 150 141 133 134 136 133 129 130 126 120 118 115 108 106 114 119 120 114 110 109 114 114 108 120 129 137 139 150 149 159 183 195 204 198 195 189 177 169 183 160 157 157 158 159 166 172
162 164 169 170 165 156 150 152 163 163 157 159 163 136 134 141 143 147 139 137 144 145 142 138 139 137 136 133 130 127 130 133 128 119 118 125 127 124 116 116 118 138 152 155 162 170 185 195 205 214 209 189 192 186 180 190 194 161 166 158 178 181 174
165 170 172 165 158 151 153 156 160 160 153 161 155 135 127 133 140 151 149 152 152 156 156 149 142 135 130 132 128 125 130 133 136 131 116 120 128 128 130 126 137 144 155 154 160 189 188 200 213 219 226 211 203 190 186 196 190 176 168 171 166 178 165
166 170 165 155 151 154 152 154 154 154 160 153 133 133 144 153 158 163 161 159 160 159 158 154 149 142 134 132 127 118 119 129 137 139 130 123 128 126 126 130 142 156 161 163 168 168 184 194 194 207 207 213 201 183 191 191 191 181 180 173 166 161 183
117 77 51 35 79 107 127 145 158 155 151 141 135 130 138 146 156 160 162 160 159 156 156 155 145 139 137 137 138 138 143 148 142 128 122 131 123 119 130 133 147 164 169 159 159 171 174 179 194 197 187 182 190 179 183 188 190 179 184 170 169 175 174
96 121 134 132 117 107 107 120 121 123 138 142 153 155 156 172 162 154 160 167 157 157 157 159 153 146 142 141 143 148 155 163 153 140 141 146 164 165 165 163 164 173 173 169 169 165 174 177 184 197 187 186 176 178 181 180 183 185 185 183 184 178 182
113 181 122 122 113 110 117 111 109 110 116 118 131 143 141 159 148 146 130 129 146 152 154 151 157 158 154 155 159 158 160 168 171 160 159 164 183 189 183 183 192 188 198 186 215 194 194 180 177 185 188 190 184 186 184 182 187 189 185 183 178 178 179
110 108 79 74 81 93 44 96 67 86 113 114 114 103 107 91 145 165 154 117 99 98 96 114 129 156 181 171 169 159 160 171 178 178 174 175 184 202 210 205 204 352 224 186 192 201 204 219 257 268 182 187 191 194 189 187 188 189 185 186 185 181 187
96 97 120 129 106 119 170 356 68 90 63 77 108 103 107 132 151 175 161 145 130 133 136 91 139 166 159 148 178 182 186 180 180 187 191 195 195 190 195 202 207 189 197 168 187 193 202 227 240 263 228 207 216 202 189 192 197 188 192 194 181 187 195
81 84 91 95 111 59 118 131 149 128 135 130 102 106 129 150 157 162 163 145 136 132 142 106 129 142 158 160 235 220 198 194 191 198 204 208 210 201 199 203 212 200 212 215 179 165 140 60 76 102 122 106 347 336 331 242 187 189 196 188 178 192 191
90 89 95 103 114 150 116 107 92 96 91 67 74 91 141 169 162 156 160 147 122 127 181 124 133 136 149 151 126 286 218 216 211 211 212 216 219 213 207 209 216 212 201 155 226 198 168 143 104 97 94 84 47 28 6 340 321 258 187 193 184 180 194
78 75 71 88 94 97 91 70 67 66 85 93 100 128 173 153 141 151 139 129 143 163 211 127 142 146 144 136 114 167 246 249 252 240 230 224 222 220 215 219 226 218 205 202 208 199 185 165 158 156 164 162 131 108 66 38 44 317 255 210 190 186 160
77 76 81 78 82 89 93 92 78 73 91 120 162 171 166 162 155 141 119 108 160 196 79 108 129 134 137 141 135 164 215 231 247 250 248 240 236 232 224 226 233 240 213 207 200 191 191 184 176 167 154 133 123 90 46 25 3 333 200 268 209 116 118
51 59 59 59 72 74 71 70 75 83 102 114 117 121 111 115 120 123 131 135 160 341 84 92 113 126 139 149 160 213 222 230 238 241 245 242 243 237 233 231 236 234 227 219 168 183 209 186 176 167 153 142 131 98 65 36 356 0 8 77 114 124 125
48 48 52 56 51 56 56 50 46 48 91 82 80 72 63 63 73 99 106 94 54 40 63 102 104 114 129 149 190 215 223 229 244 255 254 257 246 236 234 232 237 244 223 224 156 180 189 193 181 172 162 151 140 122 99 73 54 60 69 71 73 74 79
52 49 51 51 51 49 49 43 32 23 66 71 65 57 54 59 50 40 35 37 29 25 34 58 52 67 79 103 312 288 265 259 259 265 261 242 246 246 245 231 264 252 240 212 154 180 183 194 190 178 167 158 149 138 126 122 102 77 76 78 77 79 81
39 44 50 44 40 50 51 42 28 18 30 72 80 78 68 68 56 46 44 54 28 37 57 74 82 91 99 162 250 276 266 270 270 257 248 244 221 240 244 210 209 245 254 202 162 182 189 202 195 180 174 157 155 150 148 148 136 128 123 112 106 103 96
38 36 40 41 35 31 32 51 41 37 15 13 41 51 66 79 79 65 57 65 76 64 61 79 108 139 151 159 277 294 290 282 278 272 253 271 279 260 238 252 194 205 235 180 177 186 194 207 205 182 173 187 174 163 154 153 145 142 133 126 119 112 108
43 47 42 41 40 40 37 40 48 52 32 13 36 30 27 56 71 71 57 41 38 45 37 38 100 122 132 148 143 195 251 294 306 304 300 289 278 282 282 270 278 173 210 209 188 194 198 207 213 197 193 197 190 147 149 145 126 122 124 119 120 123 124
30 34 36 37 43 45 36 38 43 52 65 43 40 48 30 41 66 68 61 47 45 37 50 41 27 88 68 95 109 204 264 57 23 311 312 310 312 308 316 332 329 63 111 226 243 221 216 207 212 215 204 135 118 139 153 137 141 142 135 140 138 136 137
29 24 28 34 46 50 41 41 35 37 43 61 71 59 52 47 61 65 60 48 39 35 28 46 30 24 44 40 87 182 268 293 315 288 312 312 317 323 324 324 19 51 35 189 204 210 233 281 261 234 122 138 148 143 135 146 145 147 147 147 147 142 141
22 21 24 32 47 53 49 49 48 39 31 35 37 43 41 41 54 62 60 51 47 38 32 32 43 25 14 17 360 344 314 283 275 285 306 293 303 317 312 339 26 61 82 127 159 186 189 183 279 25 125 137 151 155 151 144 154 151 147 146 147 142 141